STARLINK-1477, 45754

Orbit data source: Space-Track

STARLINK-1477, 45754 is a payload satellite owned by SpaceX/Seattle (US) in LEO that was launched on Sat, 13 Jun 2020 UTC via an FALCON 9 launch vehicle from the Air Force Eastern Test Range (AFETR). Payloads include a variety of satellites, spacecraft, and rockets equipped with specific instruments for various scientific and technological missions. These include communications satellites like Starlink; space stations such as the ISS; scientific satellites like the Hubble; Earth observation satellites from companies like Planet Labs, Umbra, and HawkEye 360; GPS; miniature CubeSats for education and research; and military/defense satellites.

Loading next visibility...
STARLINK-1477 details
Identifier
45754, 2020-038AA
Orbit
LEO
Last TLE update23 hours ago
Origin
Flag of USSpaceX/Seattle (US)
ManufacturerSpaceX/Seattle
MissionOperational Commercial Communications
Bus & MotorSTARLINK, Unknown motor
Mass260 kg wet, ~248 kg dry
Launch date (UTC)
2020-06-13 (5 years ago)
Launch vehicle
FALCON 9
Launch site
Air Force Eastern Test Range (AFETR)
Object type
Payload
Rocket body
Debris
Shape & HBRBox + 1 Pan, 8.86 m
Radar Cross Section13.562 m², Large (>1 m²)

Expand to show TLE details & history

TLE from 23 hours ago
0 STARLINK-1477
1 45754U 20038AA  24360.49673396  .00031187  00000-0  21043-2 0  9992
2 45754  53.0582  28.2278 0001557  95.3882 264.7285 15.06383213250285
Epoch: 2024-12-25T11:55Z
Definitive object data (Epoch: 2024-12-25T11:55:17.814Z)
Latitude0.00002°
Longitude114.91395°
Altitude548.242 km
Speed7.589 km/s
True Right ascension01h 52m 54s
True Declination0° 00' 00"
Sunlit
Object was in daylight at TLE epoch
Visualization TLE readout
Latitude-10.06629°
Longitude-61.78691°
Altitude549.886 km
Speed7.587 km/s
Apparent Right ascension17h 05m 58s
Apparent Declination-42° 48' 26"
Sunlit
Object is in daylight
Visualization observer readout
Local Sidereal Time10:25:09
Azimuth121.23° SE
Elevation-32.393°
Doppler factor1
Orbital elements
Apogee altitude548.611 km
Perigee altitude546.455 km
Semi-major axis6,925.67 km
Eccentricity0.0001557
Inclination53.0582°
RAAN28.2278°
Arg. of periapsis95.3882°
True anomaly264.71073°
Mean anomaly264.7285°
Eccentric anomaly264.71962°
Mean motion3.76574 °/min
BSTAR0.0021043
Orbital period95.6 mins
Loading maneuver chart data...

STARLINK-1477 Visibility forecast

Observer location: undefined°, undefined

Span
Click to sort rows by Start time (UTC) header in descending order
Start Az.
Max El. time (UTC)
Max El. Az.
Max El.
End time (UTC)
End Az.
6 mins2024-12-26 12:20:52.465Z287.067° WNW2024-12-26 12:23:52.465Z219.295° SW29.918°2024-12-26 12:26:52.465Z164.456° S
6 mins2024-12-27 03:53:52.465Z196.122° SSW2024-12-27 03:56:52.465Z115.726° SE32.905°2024-12-27 03:59:52.465Z64.9° ENE
5 mins2024-12-27 05:33:52.465Z280.728° WNW2024-12-27 05:35:52.465Z326.027° NNW27.846°2024-12-27 05:38:52.465Z28.799° NE
5 mins2024-12-27 10:35:52.465Z334.856° NNW2024-12-27 10:37:52.465Z35.845° NE35.193°2024-12-27 10:40:52.465Z102.658° ESE
|